Date String (YYYY-MM-DD hh:mm:ss) UTC,Instrument flags,Ambient pressure (hPa),Sample flow (lpm),Bypass flow (lpm),Sample temperature (°C),Ambient temperature (°C),ASC tube jacket temperature (°C),LED temperature (°C),Box temperature (°C),Sample RH (%),Span deviation,Mass concentration (μg/m³),Mass concentration (μg/m³),Mass concentration (μg/m³)
DateTimeUTC,F1_M11,P_M11,Q1_M11,Q2_M11,T1_M11,T2_M11,T3_M11,T4_M11,T5_M11,U1_M11,ZSPAN_M11,X2_M11,X0_M11,X1_M11
2021-09-04 17:00:00,,0831.2,5.01,0.00,29.5,26.3,00.0,38.7,31.0,33.0,0000.6,0010.55,0015.51,0009.99
2021-09-04 17:01:00,,0831.2,5.00,0.00,29.5,26.7,00.0,38.7,31.0,33.1,0000.7,0010.53,0015.27,0009.97
2021-09-04 17:02:00,,0831.2,5.00,0.00,29.5,27.1,00.0,38.6,31.1,33.1,0001.0,0010.55,0015.67,0009.96
2021-09-04 17:03:00,,0831.2,4.99,0.00,29.5,27.5,00.0,38.6,31.2,33.5,0001.0,0010.56,0016.06,0009.95
2021-09-04 17:04:00,,0831.1,5.00,0.00,29.5,27.8,00.0,38.6,31.2,31.3,0001.0,0010.57,0016.02,0009.95
2021-09-04 17:05:00,,0831.2,5.01,0.00,29.5,28.1,00.0,38.6,31.3,30.8,0001.2,0010.59,0016.29,0009.95
2021-09-04 17:06:00,,0831.2,5.01,0.00,29.6,28.3,00.0,38.6,31.4,31.0,0001.5,0010.58,0016.66,0009.97
2021-09-04 17:07:00,,0831.2,4.99,0.00,29.6,28.5,00.0,38.6,31.4,31.1,0001.4,0010.58,0016.50,0009.96
2021-09-04 17:08:00,,0831.2,5.02,0.00,29.7,28.6,00.0,38.6,31.5,31.9,0001.7,0010.56,0016.22,0009.98
2021-09-04 17:09:00,,0831.2,5.00,0.00,29.7,28.8,00.0,38.7,31.6,31.9,0001.7,0010.57,0015.93,0009.99
2021-09-04 17:10:00,,0831.2,5.00,0.00,29.7,28.9,00.0,38.7,31.6,32.2,0001.6,0010.56,0015.75,0010.00
2021-09-04 17:11:00,,0831.2,4.99,0.00,29.8,28.2,00.0,38.7,31.4,32.1,0001.5,0010.54,0015.82,0010.02
2021-09-04 17:12:00,,0831.2,5.01,0.00,29.6,26.6,00.0,38.7,31.0,32.3,0001.4,0010.53,0016.20,0010.03
2021-09-04 17:13:00,,0831.1,4.98,0.00,29.5,26.2,00.0,38.7,30.9,32.1,0001.1,0010.54,0015.92,0010.02
2021-09-04 17:14:00,,0831.0,5.00,0.00,29.5,26.5,00.0,38.6,31.0,32.3,0000.8,0010.59,0016.09,0010.04
2021-09-04 17:15:00,,0831.1,5.00,0.00,29.4,26.9,00.0,38.6,31.0,32.2,0000.7,0010.59,0016.17,0010.06
2021-09-04 17:16:00,,0831.1,5.00,0.00,29.4,27.3,00.0,38.6,31.1,32.3,0000.6,0010.62,0016.44,0010.08
2021-09-04 17:17:00,,0831.0,5.00,0.00,29.4,27.7,00.0,38.6,31.2,31.8,0000.6,0010.65,0017.26,0010.08
2021-09-04 17:18:00,,0831.0,5.00,0.00,29.5,28.0,00.0,38.6,31.3,32.4,0000.5,0010.68,0017.31,0010.10
2021-09-04 17:19:00,,0831.0,5.00,0.00,29.5,28.2,00.0,38.6,31.3,33.2,0000.4,0010.71,0017.50,0010.12
2021-09-04 17:20:00,,0831.1,5.01,0.00,29.6,28.4,00.0,38.6,31.4,32.7,0000.2,0010.78,0017.60,0010.12
2021-09-04 17:21:00,,0831.1,4.99,0.00,29.6,28.6,00.0,38.6,31.4,30.3,0000.1,0010.80,0017.60,0010.13
2021-09-04 17:22:00,,0831.1,5.00,0.00,29.6,28.7,00.0,38.6,31.5,29.1,0000.2,0010.82,0017.19,0010.15
2021-09-04 17:23:00,,0831.1,4.99,0.00,29.7,28.8,00.0,38.6,31.6,28.6,0000.0,0010.85,0016.93,0010.18
2021-09-04 17:24:00,,0831.1,5.00,0.00,29.7,28.6,00.0,38.7,31.5,28.4,0000.0,0010.89,0017.07,0010.24
2021-09-04 17:25:00,,0831.1,5.01,0.00,29.6,27.0,00.0,38.6,31.1,28.2,0000.4,0010.93,0016.86,0010.28
2021-09-04 17:26:00,,0831.0,5.01,0.00,29.5,26.0,00.0,38.6,30.8,29.1,0000.6,0010.96,0016.88,0010.30
2021-09-04 17:27:00,,0831.0,5.00,0.00,29.4,26.2,00.0,38.6,30.9,28.8,0000.5,0010.96,0016.40,0010.33
2021-09-04 17:28:00,,0831.1,5.01,0.00,29.3,26.7,00.0,38.6,30.9,29.2,0000.6,0010.98,0015.17,0010.36
2021-09-04 17:29:00,,0831.0,4.99,0.00,29.3,27.1,00.0,38.5,31.0,30.1,0000.8,0011.03,0015.11,0010.39
2021-09-04 17:30:00,,0831.0,5.00,0.00,29.4,27.5,00.0,38.5,31.1,31.0,0000.7,0011.03,0014.76,0010.40
2021-09-04 17:31:00,,0831.0,5.01,0.00,29.4,27.8,00.0,38.5,31.2,31.0,0000.8,0011.00,0014.57,0010.42
2021-09-04 17:32:00,,0831.0,4.99,0.00,29.4,28.1,00.0,38.5,31.3,30.9,0001.3,0011.01,0014.46,0010.44
2021-09-04 17:33:00,,0831.0,5.01,0.00,29.5,28.3,00.0,38.5,31.3,31.0,0001.3,0011.00,0014.44,0010.45
2021-09-04 17:34:00,,0830.9,4.99,0.00,29.5,28.5,00.0,38.5,31.4,31.2,0001.6,0010.98,0014.40,0010.43
2021-09-04 17:35:00,,0830.9,5.00,0.00,29.6,28.6,00.0,38.6,31.4,31.0,0001.9,0010.94,0014.16,0010.39
2021-09-04 17:36:00,,0830.9,5.01,0.00,29.6,28.8,00.0,38.6,31.5,31.1,0001.7,0010.92,0014.36,0010.39
2021-09-04 17:37:00,,0831.0,5.00,0.00,29.7,28.3,00.0,38.6,31.4,30.7,0001.7,0010.91,0014.98,0010.39
2021-09-04 17:38:00,,0831.0,4.99,0.00,29.6,26.7,00.0,38.6,31.0,31.0,0001.6,0010.93,0015.96,0010.38
2021-09-04 17:39:00,,0830.9,5.01,0.00,29.4,26.1,00.0,38.6,30.8,30.9,0001.4,0010.94,0016.04,0010.36
2021-09-04 17:40:00,,0830.9,5.00,0.00,29.4,26.3,00.0,38.5,30.8,30.9,0001.3,0010.92,0016.05,0010.35
2021-09-04 17:41:00,,0830.9,5.00,0.00,29.3,26.8,00.0,38.5,30.9,31.2,0001.5,0010.90,0016.35,0010.35
2021-09-04 17:42:00,,0830.9,4.99,0.00,29.3,27.2,00.0,38.5,31.0,31.3,0001.3,0010.92,0016.96,0010.34
2021-09-04 17:43:00,,0830.9,5.01,0.00,29.3,27.6,00.0,38.5,31.1,31.0,0001.3,0010.95,0017.66,0010.34
2021-09-04 17:44:00,,0831.0,5.00,0.00,29.4,27.9,00.0,38.5,31.2,30.2,0001.6,0010.98,0017.78,0010.34
2021-09-04 17:45:00,,0830.9,5.00,0.00,29.4,28.1,00.0,38.5,31.3,30.2,0001.5,0010.99,0017.81,0010.35
2021-09-04 17:46:00,,0830.9,5.01,0.00,29.5,28.3,00.0,38.5,31.3,30.0,0001.5,0011.03,0018.23,0010.36
2021-09-04 17:47:00,,0830.9,4.98,0.00,29.5,28.5,00.0,38.5,31.4,30.1,0001.6,0011.03,0018.01,0010.35
2021-09-04 17:48:00,,0830.9,5.00,0.00,29.6,28.7,00.0,38.5,31.5,29.8,0001.5,0011.06,0017.84,0010.34
2021-09-04 17:49:00,,0830.9,5.00,0.00,29.6,28.8,00.0,38.5,31.5,29.7,0001.8,0011.06,0016.91,0010.36
2021-09-04 17:50:00,,0830.9,5.00,0.00,29.6,27.9,00.0,38.6,31.3,29.0,0002.3,0011.06,0016.90,0010.39
2021-09-04 17:51:00,,0831.0,4.99,0.00,29.5,26.3,00.0,38.5,30.8,28.9,0002.3,0011.08,0016.93,0010.42
2021-09-04 17:52:00,,0831.0,5.00,0.00,29.4,26.0,00.0,38.5,30.7,28.4,0002.6,0011.11,0016.64,0010.45
2021-09-04 17:53:00,,0830.9,5.01,0.00,29.3,26.3,00.0,38.5,30.8,28.0,0002.9,0011.11,0016.15,0010.45
2021-09-04 17:54:00,,0830.9,5.00,0.00,29.3,26.8,00.0,38.5,30.9,27.6,0002.6,0011.12,0015.51,0010.47
2021-09-04 17:55:00,,0830.9,5.00,0.00,29.3,27.2,00.0,38.4,31.0,27.5,0002.5,0011.15,0015.82,0010.49
2021-09-04 17:56:00,,0830.9,4.99,0.00,29.3,27.6,00.0,38.4,31.1,27.2,0002.6,0011.18,0015.93,0010.52
2021-09-04 17:57:00,,0830.9,4.99,0.00,29.4,27.9,00.0,38.4,31.2,26.3,0002.5,0011.19,0015.63,0010.56
2021-09-04 17:58:00,,0830.9,5.00,0.00,29.4,28.1,00.0,38.4,31.3,27.2,0002.2,0011.21,0015.67,0010.60
2021-09-04 17:59:00,,0830.9,4.98,0.00,29.5,28.4,00.0,38.4,31.3,27.3,0002.4,0011.23,0015.24,0010.62
